FW3671 Weather Reports


Display with metric or nautical units.
time (UTC)temp
F
wind
direction
speed
MPH
gust
MPH
rain 1hr
in
rain 24hr
in
rain mn
in
humidity
%
barometer
mb
20260503025416 61 236 2.0 3.0 0.00 0.00 0.00 29 1017.4
20260503024914 62 245 3.0 4.0 0.00 0.00 0.00 30 1017.5
20260503024410 62 232 3.0 3.0 0.00 0.00 0.00 29 1017.4
20260503023908 62 183 2.0 3.0 0.00 0.00 0.00 30 1017.4
20260503023405 62 183 1.0 4.0 0.00 0.00 0.00 29 1017.5
20260503022902 63 145 2.0 3.0 0.00 0.00 0.00 29 1017.3
20260503022401 63 190 2.0 3.0 0.00 0.00 0.00 28 1017.3
20260503021858 64 152 1.0 2.0 0.00 0.00 0.00 28 1017.3
20260503021354 64 190 0.0 2.0 0.00 0.00 0.00 27 1017.4
20260503020852 65 45 2.0 3.0 0.00 0.00 0.00 25 1017.4
20260503020350 66 2 3.0 6.0 0.00 0.00 0.00 23 1017.4
20260503015846 66 343 3.0 6.0 0.00 0.00 0.00 23 1017.3
20260503015343 67 7 6.0 11.0 0.00 0.00 0.00 23 1017.1
20260503014838 67 354 5.0 10.0 0.00 0.00 0.00 22 1017.4
20260503014337 68 10 5.0 7.0 0.00 0.00 0.00 23 1017.4
20260503013834 69 338 3.0 8.0 0.00 0.00 0.00 22 1017.5
20260503013331 69 343 3.0 7.0 0.00 0.00 0.00 21 1016.9
20260503012828 69 0 6.0 7.0 0.00 0.00 0.00 21 1017.3
20260503012326 68 308 6.0 16.0 0.00 0.00 0.00 20 1017.1
20260503011822 69 327 11.0 12.0 0.00 0.00 0.00 20 1017.3
20260503011319 69 323 4.0 7.0 0.00 0.00 0.00 18 1017.0
20260503010815 70 315 3.0 3.0 0.00 0.00 0.00 17 1017.0
20260503010313 69 29 1.0 1.0 0.00 0.00 0.00 16 1017.0
20260503005809 69 144 2.0 4.0 0.00 0.00 0.00 15 1016.8
20260503005307 70 155 2.0 4.0 0.00 0.00 0.00 16 1017.1
20260503004803 70 170 2.0 2.0 0.00 0.00 0.00 16 1017.1
20260503004301 71 207 2.0 5.0 0.00 0.00 0.00 15 1017.4
20260503003758 71 159 6.0 7.0 0.00 0.00 0.00 14 1016.9
20260503003255 72 204 3.0 6.0 0.00 0.00 0.00 15 1017.0
20260503002751 73 189 5.0 6.0 0.00 0.00 0.00 15 1016.9
20260503002248 74 192 4.0 7.0 0.00 0.00 0.00 13 1016.9
20260503001744 77 200 6.0 9.0 0.00 0.00 0.00 13 1017.0
20260503001241 78 176 3.0 7.0 0.00 0.00 0.00 12 1017.0
20260503000739 78 172 6.0 10.0 0.00 0.00 0.00 12 1017.3
20260503000236 79 33 3.0 6.0 0.00 0.00 0.00 13 1017.0
20260502235733 78 227 4.0 5.0 0.00 0.00 0.00 13 1017.1
20260502235231 77 95 2.0 11.0 0.00 0.00 0.00 13 1017.4
20260502234727 77 117 7.0 10.0 0.00 0.00 0.00 14 1017.3
20260502234225 77 130 7.0 7.0 0.00 0.00 0.00 13 1017.4
20260502233720 77 244 0.0 4.0 0.00 0.00 0.00 13 1017.3
20260502233217 75 172 5.0 12.0 0.00 0.00 0.00 13 1017.3
20260502232712 75 80 2.0 2.0 0.00 0.00 0.00 12 1017.3
20260502232210 75 120 7.0 12.0 0.00 0.00 0.00 10 1017.3
20260502231707 75 137 6.0 11.0 0.00 0.00 0.00 12 1017.5
20260502231204 74 146 6.0 13.0 0.00 0.00 0.00 11 1017.4
20260502230703 74 117 2.0 5.0 0.00 0.00 0.00 13 1017.7
20260502230201 73 197 5.0 11.0 0.00 0.00 0.00 11 1017.9
20260502225656 73 156 3.0 9.0 0.00 0.00 0.00 11 1017.9
20260502225154 74 117 3.0 7.0 0.00 0.00 0.00 14 1017.9
20260502224650 75 97 11.0 12.0 0.00 0.00 0.00 16 1017.9
20260502224147 75 131 12.0 13.0 0.00 0.00 0.00 13 1018.1
20260502223645 75 121 4.0 11.0 0.00 0.00 0.00 15 1018.1
20260502223143 74 174 5.0 11.0 0.00 0.00 0.00 15 1018.1
20260502222640 73 100 6.0 7.0 0.00 0.00 0.00 16 1018.3
20260502222136 72 125 14.0 18.0 0.00 0.00 0.00 14 1018.6
20260502221632 72 94 7.0 14.0 0.00 0.00 0.00 16 1018.5
20260502221129 72 175 3.0 9.0 0.00 0.00 0.00 16 1018.3
20260502220626 72 161 4.0 10.0 0.00 0.00 0.00 17 1018.6
20260502220122 72 118 9.0 13.0 0.00 0.00 0.00 16 1018.6
20260502215619 72 188 2.0 14.0 0.00 0.00 0.00 17 1018.8
20260502215116 73 134 17.0 17.0 0.00 0.00 0.00 16 1019.0
20260502214613 74 202 2.0 15.0 0.00 0.00 0.00 15 1019.3
20260502214110 74 138 11.0 14.0 0.00 0.00 0.00 16 1019.0
20260502213608 74 189 7.0 14.0 0.00 0.00 0.00 15 1019.3
20260502213104 75 144 4.0 15.0 0.00 0.00 0.00 16 1019.3
20260502212603 75 277 4.0 11.0 0.00 0.00 0.00 18 1019.5
20260502212101 73 175 6.0 10.0 0.00 0.00 0.00 18 1019.3
20260502211556 73 179 5.0 11.0 0.00 0.00 0.00 18 1019.8
20260502211054 73 134 9.0 10.0 0.00 0.00 0.00 16 1019.9
20260502210551 73 241 3.0 11.0 0.00 0.00 0.00 15 1020.3
20260502210048 73 130 2.0 6.0 0.00 0.00 0.00 19 1020.3
20260502205544 73 180 4.0 9.0 0.00 0.00 0.00 16 1020.1
20260502205041 73 187 6.0 14.0 0.00 0.00 0.00 16 1020.1
20260502204538 73 190 2.0 8.0 0.00 0.00 0.00 18 1020.1
20260502204036 73 149 9.0 10.0 0.00 0.00 0.00 16 1020.0
20260502203532 72 107 7.0 11.0 0.00 0.00 0.00 15 1020.3
20260502203029 73 132 3.0 11.0 0.00 0.00 0.00 16 1020.3
20260502202525 72 150 4.0 12.0 0.00 0.00 0.00 17 1020.4
20260502202024 72 147 14.0 18.0 0.00 0.00 0.00 15 1020.4
20260502201520 73 122 2.0 7.0 0.00 0.00 0.00 16 1020.6
20260502201016 73 209 8.0 14.0 0.00 0.00 0.00 16 1020.7
20260502200512 72 169 3.0 9.0 0.00 0.00 0.00 18 1020.4
20260502200011 72 69 3.0 6.0 0.00 0.00 0.00 17 1020.5
20260502195508 72 129 8.0 15.0 0.00 0.00 0.00 14 1021.0
20260502195003 72 196 3.0 9.0 0.00 0.00 0.00 17 1021.0
20260502194500 72 128 8.0 13.0 0.00 0.00 0.00 18 1020.8
20260502193956 73 84 4.0 8.0 0.00 0.00 0.00 18 1021.0
20260502193454 72 160 6.0 16.0 0.00 0.00 0.00 16 1021.1
20260502192949 71 240 3.0 11.0 0.00 0.00 0.00 15 1020.8
20260502192446 71 165 7.0 13.0 0.00 0.00 0.00 15 1021.1
20260502191943 71 203 13.0 14.0 0.00 0.00 0.00 19 1021.1
20260502191441 70 132 12.0 13.0 0.00 0.00 0.00 18 1021.1
20260502190938 70 206 6.0 15.0 0.00 0.00 0.00 19 1021.3
20260502190435 71 137 11.0 14.0 0.00 0.00 0.00 16 1021.3
20260502185932 71 165 6.0 10.0 0.00 0.00 0.00 19 1021.4
20260502185427 70 160 9.0 14.0 0.00 0.00 0.00 17 1021.4
20260502184925 71 152 8.0 12.0 0.00 0.00 0.00 19 1021.5
20260502184420 71 209 16.0 17.0 0.00 0.00 0.00 19 1021.3
20260502183917 71 232 2.0 16.0 0.00 0.00 0.00 17 1021.8
20260502183413 70 208 8.0 16.0 0.00 0.00 0.00 18 1021.8
20260502182908 70 218 8.0 19.0 0.00 0.00 0.00 18 1021.9
20260502182404 70 225 8.0 12.0 0.00 0.00 0.00 21 1021.7
20260502181900 70 132 2.0 6.0 0.00 0.00 0.00 24 1021.7
20260502181359 69 166 7.0 15.0 0.00 0.00 0.00 19 1021.7
20260502180857 69 176 5.0 20.0 0.00 0.00 0.00 19 1021.8
20260502180354 70 175 11.0 12.0 0.00 0.00 0.00 21 1021.8
20260502170318 69 147 11.0 15.0 0.00 0.00 0.00 22 1022.0
20260502164306 69 138 11.0 12.0 0.00 0.00 0.00 24 1022.3
20260502163801 68 159 2.0 8.0 0.00 0.00 0.00 25 1022.3
20260502163258 68 183 6.0 11.0 0.00 0.00 0.00 22 1022.1
20260502162755 67 154 2.0 13.0 0.00 0.00 0.00 28 1022.0
20260502162252 68 143 6.0 10.0 0.00 0.00 0.00 24 1022.1
20260502161749 67 189 5.0 11.0 0.00 0.00 0.00 26 1022.0
20260502161246 68 353 1.0 2.0 0.00 0.00 0.00 26 1022.1
20260502160744 67 157 0.0 8.0 0.00 0.00 0.00 28 1022.1
20260502160243 67 115 3.0 3.0 0.00 0.00 0.00 28 1022.0
20260502152211 58 331 2.0 3.0 0.00 0.00 0.00 33 1022.2
20260502151709 57 330 1.0 2.0 0.00 0.00 0.00 32 1022.2
20260502151206 56 260 2.0 4.0 0.00 0.00 0.00 32 1022.2
20260502150703 55 289 4.0 5.0 0.00 0.00 0.00 32 1022.1
20260502150159 55 294 2.0 4.0 0.00 0.00 0.00 33 1022.1
20260502140123 49 235 0.0 2.0 0.00 0.00 0.00 40 1022.1
20260502130548 50 112 6.0 8.0 0.00 0.00 0.00 34 1021.5
20260502123531 48 107 5.0 6.0 0.00 0.00 0.00 36 1021.7
20260502123028 47 88 5.0 6.0 0.00 0.00 0.00 39 1021.5
20260502122524 47 139 0.0 4.0 0.00 0.00 0.00 40 1021.7
20260502122022 48 218 4.0 4.0 0.00 0.00 0.00 39 1021.7
20260502121519 48 122 1.0 3.0 0.00 0.00 0.00 37 1021.5
20260502121017 48 184 5.0 7.0 0.00 0.00 0.00 38 1021.3
20260502120513 48 92 4.0 5.0 0.00 0.00 0.00 37 1021.4
20260502115508 48 115 2.0 6.0 0.00 0.00 0.00 36 1021.5
20260502115003 48 123 4.0 6.0 0.00 0.00 0.00 38 1021.5
20260502114500 48 127 2.0 5.0 0.00 0.00 0.00 39 1021.4
20260502113957 48 102 5.0 9.0 0.00 0.00 0.00 37 1021.3
20260502113454 46 157 4.0 12.0 0.00 0.00 0.00 48 1021.4
20260502112953 47 95 2.0 6.0 0.00 0.00 0.00 47 1021.5
20260502112450 48 128 2.0 3.0 0.00 0.00 0.00 38 1021.2
20260502111948 48 217 5.0 8.0 0.00 0.00 0.00 38 1021.5
20260502111445 48 146 1.0 6.0 0.00 0.00 0.00 37 1021.2
20260502110942 49 187 3.0 8.0 0.00 0.00 0.00 39 1021.4
20260502110440 49 160 2.0 4.0 0.00 0.00 0.00 36 1021.5
20260502105937 49 109 6.0 6.0 0.00 0.00 0.00 35 1021.4
20260502105434 49 126 4.0 8.0 0.00 0.00 0.00 35 1021.5
20260502104932 49 145 7.0 8.0 0.00 0.00 0.00 36 1021.3
20260502104429 49 65 0.0 7.0 0.00 0.00 0.00 36 1021.3
20260502103926 50 195 3.0 5.0 0.00 0.00 0.00 36 1021.2
20260502103424 50 89 2.0 6.0 0.00 0.00 0.00 35 1021.5
20260502102920 51 112 6.0 9.0 0.00 0.00 0.00 35 1021.3
20260502102417 50 101 6.0 8.0 0.00 0.00 0.00 36 1021.2
20260502101915 51 106 4.0 4.0 0.00 0.00 0.00 36 1021.3
20260502101413 51 105 7.0 8.0 0.00 0.00 0.00 35 1021.3
20260502100911 51 99 7.0 11.0 0.00 0.00 0.00 34 1021.1
20260502100410 51 98 6.0 12.0 0.00 0.00 0.00 34 1021.2
20260502091343 51 110 7.0 12.0 0.00 0.00 0.00 34 1021.1
20260502090841 50 116 6.0 15.0 0.00 0.00 0.00 34 1021.3
20260502090338 51 120 4.0 11.0 0.00 0.00 0.00 37 1021.3
20260502071233 51 127 8.0 10.0 0.00 0.00 0.00 39 1021.5
20260502070731 51 151 9.0 11.0 0.00 0.00 0.00 39 1021.8
20260502070228 50 127 10.0 15.0 0.00 0.00 0.00 37 1021.7
20260502065727 51 129 16.0 19.0 0.00 0.00 0.00 36 1021.5
20260502065224 51 123 13.0 15.0 0.00 0.00 0.00 38 1021.7
20260502064723 51 132 10.0 12.0 0.00 0.00 0.00 38 1021.7
20260502064220 51 121 6.0 11.0 0.00 0.00 0.00 37 1021.7
20260502063717 51 128 15.0 17.0 0.00 0.00 0.00 37 1021.9
20260502063215 51 129 12.0 16.0 0.00 0.00 0.00 36 1021.5
20260502062712 51 131 9.0 13.0 0.00 0.00 0.00 37 1021.7
20260502062210 51 130 10.0 15.0 0.00 0.00 0.00 37 1021.4
20260502061708 51 133 10.0 16.0 0.00 0.00 0.00 37 1021.4
20260502061205 51 129 11.0 14.0 0.00 0.00 0.00 37 1021.5
20260502060700 51 134 9.0 12.0 0.00 0.00 0.00 37 1021.7
20260502060157 51 120 10.0 16.0 0.00 0.00 0.00 36 1021.5
20260502055655 51 127 7.0 11.0 0.00 0.00 0.00 37 1021.4
20260502055152 51 133 8.0 13.0 0.00 0.00 0.00 38 1021.3
20260502054652 51 128 7.0 8.0 0.00 0.00 0.00 39 1021.3
20260502054148 51 132 6.0 7.0 0.00 0.00 0.00 39 1021.3
20260502053645 51 142 4.0 5.0 0.00 0.00 0.00 39 1021.5
20260502053142 51 149 4.0 4.0 0.00 0.00 0.00 38 1021.3
20260502052641 52 178 3.0 3.0 0.00 0.00 0.00 36 1021.2
20260502052138 52 150 4.0 8.0 0.00 0.00 0.00 36 1021.5
20260502051637 52 126 6.0 10.0 0.00 0.00 0.00 35 1021.7
20260502051134 52 138 3.0 4.0 0.00 0.00 0.00 36 1021.4
20260502050630 53 106 2.0 4.0 0.00 0.00 0.00 36 1021.3
20260502050127 53 117 2.0 5.0 0.00 0.00 0.00 36 1021.3
20260502045623 53 167 2.0 3.0 0.00 0.00 0.00 35 1021.3
20260502045121 53 250 2.0 3.0 0.00 0.00 0.00 33 1021.3
20260502044617 53 217 1.0 2.0 0.00 0.00 0.00 35 1021.3
20260502044114 53 222 0.0 2.0 0.00 0.00 0.00 34 1021.3
20260502043612 53 159 2.0 4.0 0.00 0.00 0.00 35 1021.3
20260502043109 53 238 1.0 3.0 0.00 0.00 0.00 33 1021.3
20260502042608 53 136 3.0 4.0 0.00 0.00 0.00 35 1021.0
20260502042106 54 194 1.0 2.0 0.00 0.00 0.00 34 1021.0
20260502041604 54 231 4.0 4.0 0.00 0.00 0.00 35 1021.1
20260502041101 53 135 0.0 4.0 0.00 0.00 0.00 34 1021.1
20260502040557 53 263 2.0 4.0 0.00 0.00 0.00 36 1021.1
20260502040055 53 242 3.0 4.0 0.00 0.00 0.00 38 1021.2
20260502035550 53 250 1.0 3.0 0.00 0.00 0.00 36 1021.0
20260502035048 54 279 1.0 2.0 0.00 0.00 0.00 35 1020.7
20260502034546 54 172 2.0 3.0 0.00 0.00 0.00 35 1020.6
20260502034044 54 187 0.0 2.0 0.00 0.00 0.00 36 1020.8
20260502033542 54 258 2.0 4.0 0.00 0.00 0.00 34 1020.7
20260502033039 55 306 2.0 6.0 0.00 0.00 0.00 33 1020.4
20260502032535 55 299 4.0 6.0 0.00 0.00 0.00 32 1020.5
20260502032031 55 271 7.0 10.0 0.00 0.00 0.00 33 1020.5
20260502031530 54 298 5.0 9.0 0.00 0.00 0.00 33 1020.5
20260502031027 54 254 5.0 7.0 0.00 0.00 0.00 34 1020.3
20260502030526 55 226 3.0 4.0 0.00 0.00 0.00 34 1020.1
20260502030023 55 99 2.0 4.0 0.00 0.00 0.00 35 1020.3
20260502025520 56 318 4.0 4.0 0.00 0.00 0.00 33 1019.9